DW8214 Vilamoura PT current weather conditions

sailwx.info

Wind from 223

Air temperature 14.4° C
Dewpoint 8.6° C

Last reported at 2019-Nov-19 17:00 UTC.
Time now 2019-Nov-19 18:03 UTC

Location: N 37°06' W 008°07'.
View on Google Maps.

See reports from other nearby stations

  
Tides and Currents Weather Stations Pressure Air Temp Water Temp Dewpoint Dewpoint Depression Visibility Wind Speed Wind Dir Waves Ship Positions
date/time (UTC)wind fromknots sea level pressurealtimeterstation pressurevisibilityair tempwater tempwave heightnotes
2019-Nov-19 17:00 223 14.4
2019-Nov-19 16:45 223 14.4
2019-Nov-19 16:30 223 14.4
2019-Nov-19 16:15 201 14.4
2019-Nov-19 16:00 196 14.4
2019-Nov-19 15:46 216 15.0
2019-Nov-19 15:30 194 15.0
2019-Nov-19 15:15 219 15.6
2019-Nov-19 15:00 197 15.6
2019-Nov-19 14:46 156 15.6
2019-Nov-19 14:30 153 15.6
2019-Nov-19 14:15 213 15.6
2019-Nov-19 14:00 191 0 gusting 6 15.6
2019-Nov-19 13:45 209 15.6
2019-Nov-19 13:30 148 15.6
2019-Nov-19 13:15 177 15.6
2019-Nov-19 13:00 165 0 gusting 4 16.7
2019-Nov-19 12:45 152 16.1
2019-Nov-19 12:30 134 15.6
2019-Nov-19 12:15 156 15.6
2019-Nov-19 12:00 202 0 gusting 6 15.6
2019-Nov-19 11:45 196 16.1
2019-Nov-19 11:17 156 16.7
2019-Nov-19 11:03 060 16.1
2019-Nov-19 10:47 060 15.6
2019-Nov-19 10:31 103 15.0
2019-Nov-19 10:16 055 14.4
2019-Nov-19 10:01 055 13.9
2019-Nov-19 09:46 055 13.3
2019-Nov-19 09:31 055 13.3
2019-Nov-19 09:15 055 12.8
2019-Nov-19 09:00 055 12.2
2019-Nov-19 08:46 055 11.7
2019-Nov-19 08:30 055 10.6
2019-Nov-19 08:16 055 9.4
2019-Nov-19 08:00 055 9.4
2019-Nov-19 07:45 055 9.4
2019-Nov-19 07:30
2019-Nov-19 07:15
2019-Nov-19 07:00
2019-Nov-19 06:46
2019-Nov-19 06:31
2019-Nov-19 06:17
2019-Nov-19 06:01
2019-Nov-19 05:46 005 9.4
2019-Nov-19 05:31 013 9.4
2019-Nov-19 05:17 338 8.9
2019-Nov-19 05:01 338 8.3
2019-Nov-19 04:46 338 8.3
2019-Nov-19 04:32 338 7.8
2019-Nov-19 04:15 338 7.8
2019-Nov-19 04:01 338 8.3
2019-Nov-19 03:46 338 8.3
2019-Nov-19 03:30 338 8.3
2019-Nov-19 03:17 338 8.3
2019-Nov-19 03:01 338 8.9
2019-Nov-19 02:46 338 8.9
2019-Nov-19 02:31 338 9.4
2019-Nov-19 02:15 338 9.4
2019-Nov-19 02:00 338 9.4
2019-Nov-19 01:46 338 9.4
2019-Nov-19 01:31 338 8.9
2019-Nov-19 01:15 338 8.9
2019-Nov-19 01:00 338 8.9
2019-Nov-19 00:45 034 8.9
2019-Nov-19 00:30 036 8.9
2019-Nov-19 00:15 005 8.9
2019-Nov-19 00:00 302 8.9
2019-Nov-18 23:45 302 8.9
2019-Nov-18 23:30 302 9.4
2019-Nov-18 23:15 302 10.0
2019-Nov-18 23:00 302 10.6
2019-Nov-18 22:45 302 10.6
2019-Nov-18 22:30 302 11.1
2019-Nov-18 22:15 302 11.1
2019-Nov-18 22:00 302 11.1
2019-Nov-18 21:45 302 11.1
2019-Nov-18 21:30 302 11.1
2019-Nov-18 21:15 302 11.7
2019-Nov-18 21:00 302 12.2
2019-Nov-18 20:45 302 12.2
2019-Nov-18 20:30 302 12.8
2019-Nov-18 20:17 302 12.8
2019-Nov-18 20:01 302 12.8
2019-Nov-18 19:46 302 12.8
2019-Nov-18 19:32 348 13.3
2019-Nov-18 19:17 360 13.3
2019-Nov-18 19:01 340 13.9
2019-Nov-18 18:48 344 13.9
2019-Nov-18 18:31 355 14.4
2019-Nov-18 18:16 355 14.4
2019-Nov-18 18:02 355 15.0
2019-Nov-18 17:47 355 15.6
2019-Nov-18 17:31 355 16.7
2019-Nov-18 17:16 355 17.2
2019-Nov-18 17:03 355 17.8
2019-Nov-18 16:46 347 18.3
2019-Nov-18 16:31 327 18.9
2019-Nov-18 16:16 306 19.4
2019-Nov-18 16:01 355 20.0
2019-Nov-18 15:46 350 20.6
2019-Nov-18 15:31 325 21.1
2019-Nov-18 15:16 334 0 gusting 5 21.7
2019-Nov-18 15:02 323 21.7
2019-Nov-18 14:46 333 22.2
2019-Nov-18 14:31 316 22.2
2019-Nov-18 14:16 277 22.2
2019-Nov-18 14:02 340 21.7
2019-Nov-18 13:47 310 21.7
2019-Nov-18 13:30 309 21.1
2019-Nov-18 13:16 355 21.1
2019-Nov-18 13:01 261 20.6
2019-Nov-18 12:47 340 20.6
2019-Nov-18 12:31 340 20.0
2019-Nov-18 12:16 286 20.0
2019-Nov-18 12:01 311 20.0
2019-Nov-18 11:46 308 19.4
2019-Nov-18 11:30 321 19.4
2019-Nov-18 11:16 360 18.9
2019-Nov-18 11:00 306 18.3
2019-Nov-18 10:45 346 17.8
2019-Nov-18 10:30 306 17.2
2019-Nov-18 10:15 106 16.7
2019-Nov-18 10:00 325 16.1
2019-Nov-18 09:47 323 15.6
2019-Nov-18 09:32 336 14.4
2019-Nov-18 09:02 005 12.2
2019-Nov-18 08:46 309 11.1
2019-Nov-18 08:31 309 10.6
2019-Nov-18 08:16 309 9.4
2019-Nov-18 07:45
2019-Nov-18 07:15
2019-Nov-18 07:00
2019-Nov-18 06:45
2019-Nov-18 06:30
2019-Nov-18 06:17
2019-Nov-18 06:03 280 0 gusting 2 10.0
2019-Nov-18 05:47 319 10.0
2019-Nov-18 05:31 297 10.0
2019-Nov-18 05:16 297 10.0
2019-Nov-18 05:01 311 10.0
2019-Nov-18 04:46 291 9.4
2019-Nov-18 04:33 242 9.4
2019-Nov-18 04:16 242 9.4
2019-Nov-18 04:01 242 9.4
2019-Nov-18 03:46 219 10.0
2019-Nov-18 03:32 219 10.0
2019-Nov-18 03:16 219 10.0
2019-Nov-18 03:01 219 10.6
2019-Nov-18 02:46 219 10.6
2019-Nov-18 02:31 175 11.1
2019-Nov-18 02:15 175 11.1
2019-Nov-18 02:01 322 11.7
2019-Nov-18 01:46 005 12.2
2019-Nov-18 01:31 332 12.2
2019-Nov-18 00:46 013 13.3
2019-Nov-18 00:31 355 13.9
2019-Nov-17 23:45 303 15.0
2019-Nov-17 23:31 306 15.6
2019-Nov-17 23:17 282 15.6
2019-Nov-17 23:01 296 15.6
2019-Nov-17 22:47 209 15.6
2019-Nov-17 22:31 224 15.6
2019-Nov-17 22:16 250 15.6
2019-Nov-17 22:01 228 15.0
2019-Nov-17 21:45 220 0 gusting 7 15.0
2019-Nov-17 21:30 333 0 gusting 6 15.0
2019-Nov-17 21:15 194 15.0
2019-Nov-17 21:01 246 15.0
2019-Nov-17 20:45 246 15.6
2019-Nov-17 20:31 267 15.6
2019-Nov-17 20:15 213 15.6
2019-Nov-17 20:00 222 15.6
2019-Nov-17 19:45 161 15.6
2019-Nov-17 19:30 231 15.6
2019-Nov-17 19:15 230 15.6
2019-Nov-17 19:00 250 0 gusting 4 16.1
2019-Nov-17 18:46 194 16.1
2019-Nov-17 18:30 207 16.7
2019-Nov-17 18:15 290 16.7
2019-Nov-17 18:00 276 17.2